sat.trackr.live / text

‹ back to catalog

STARLINK-2746

NORAD 48676 · 2021-044AQ

PAYLOAD ACTIVE UNKNOWN

§ Identity

Operator
Country
US
Launch date
2021-05-26
Launch site
AFETR
Launch vehicle
Mass (kg)
RCS (m²)

Purposes: comms

External: N2YO · Heavens-Above · Gunter

§ Orbital elements

Epoch: 2026-05-25T04:37:27.278976Z

Period
94.16 min
Inclination
53.1602°
Eccentricity
0.0000926
Mean motion
15.29362779 rev/d
Perigee alt
477.1 km
Apogee alt
478.4 km
Semi-major
6,855.9 km
B*
1.3986e-6
RAAN
118.5998°
Arg perigee
76.1370°
Mean anomaly
283.9734°
Rev number
27,552

§ Raw data

STARLINK-27461 48676U 21044AQ  26145.19267684 -.00000315  00000+0  13986-5 0  99942 48676  53.1602 118.5998 0000926  76.1370 283.9734 15.29362779275520

JSON: /api/v1/satellites/48676 · /tle

For live sub-satellite position, see the globe view (requires WebGL).

§ Visibility from observer

Set your observer location to see the next 7 days of passes ≥ 10°. The values pass through the URL so the page stays shareable.

No JS? Fill the form by hand. The geolocation button needs JavaScript.